Location: Aultman
(40.9284°N, 81.4173°W)
Time: 08:50:03
(UTC+00:00)

NOSS 2-1 (E) - Pass Details

Date: 24 January 2021
Orbit: 434 x 1768 km, 63.3° (Epoch: 27 February)

Event Time Altitude Azimuth Distance (km) Brightness Sun altitude
Rises 23:03:14 0° 193° (SSW) 2,541 7.2 -6.0°
Reaches altitude 10° 23:05:34 10° 182° (S) 1,586 6.0 -6.5°
Maximum altitude 23:08:35 30° 119° (ESE) 803 3.8 -7.0°
Drops below altitude 10° 23:11:33 10° 55° (NE) 1,558 5.0 -7.5°
Enters shadow 23:11:47 - 53° (NE) 1,648 5.1 -7.6°
